ATLAS 5 CENTAUR R/B, 43227

Orbit data source: Space-Track

ATLAS 5 CENTAUR R/B, 43227 is space debris in HEO originally from a launch on Thu, 01 Mar 2018 UTC launched from the Air Force Eastern Test Range (AFETR). Debris objects in space refer to the collection of defunct objects orbiting the Earth. Examples of debris include non-operational satellites, rocket bodies, and fragments generated from explosions, collisions, or faulty payload assembly.

Loading next visibility...
Identifier
43227, 2018-022B
Orbit
HEO
Country
Flag of USUS
Related business
Flag of USUnited Launch Alliance/Lockheed Martin (US)
Manufacturer
ULA Decatur
Mission
Spacecraft
Bus & Motor
CENTAUR SEC, RL10C-1
Mass
~2,020 kg wet, 2,020 kg dry
Launch date (UTC)
2018-03-01 (8 years ago)
Launch vehicle
Unknown
Launch site
Air Force Eastern Test Range (AFETR)
Object type
Payload
Rocket body
Debris
Shape & HBR
Cyl + 1 Nozzle, 5.8 m
Radar Cross Section
32.260 m², Large (>1 m²)

Expand to show TLE details & history
Last TLE update: 1 week ago

TLE from 1 week ago
0 ATLAS 5 CENTAUR R/B
1 43227U 18022B   25299.98767000 -.00000099  00000-0  00000+0 0  9993
2 43227  10.3145  33.3185 4967410  40.1447 347.5066  1.88583756  7692
Epoch: 2025-10-26T23:42Z
TLE epoch observation values (Epoch: 2025-10-26T23:42:14.688Z)
Latitude
-0.00002°
Longitude
2.09341°
Altitude
8,717.842 km
Speed
6.197 km/s
True Right ascension
02h 13m 00s
True Declination
0° 00' 00"
Sunlit
Object was in full shadow at epoch
Visualization orbit readout
Latitude
Unknown
Longitude
Unknown
Altitude
Unknown
Speed
Unknown
Apparent Right ascension
Unknown
Apparent Declination
Unknown
Sunlit
N/A
Visualization observer readout
Local Sidereal Time
01:12:23
Azimuth
Unknown
Elevation
Unknown
Doppler factor
Unknown
Orbital elements
Apogee altitude
35,045.568 km
Perigee altitude
7,550.026 km
Semi-major axis
27,675.934 km
Eccentricity
0.49674
Inclination
10.3145°
RAAN
33.3185°
Arg. of periapsis
40.1447°
True anomaly
319.53527°
Mean anomaly
347.5066°
Eccentric anomaly
335.87263°
Mean motion
0.4714 °/min
Orbital period
763.68 mins
BSTAR
0
Loading maneuver chart data...
Computing Atmospheric mass density...
Loading historical data...
Loading historical data...
Loading historical data...
Loading historical data...
Loading historical data...
Loading historical data...
Loading historical data...
Other satellites on launch #22 in the year 2018 (2018-03-01 UTC)

Documentation

Showing up to 5 results
|